Find Starlink 32273

NORAD ID: 61956 Int'l Des: 2024-209 Owner: SPXS Country: US Constellation: starlink operational
LEOCIRCULAR

Current View

Loading 3D Globe...

About Starlink 32273

Starlink 32273 (NORAD 61956) is a starlink constellation satellite (v2 mini) launched Nov 14, 2024 by SPXS of US. It operates in LEO, CIRCULAR orbit with a mass of 730.00 kg.

Upcoming Passes

Passes for default location (London). Set your location on the main map for personalized predictions.

Altitude History

Loading altitude history...

Two-Line Element Set

1 61956U 24209T 26229.95601241 .00016590 00000-0 50098-3 0 9999
2 61956 53.1582 112.1916 0001176 74.2971 285.8161 15.34404230 99600
Epoch: Aug 17, 2026 • Age: 18 hours

Current Status

Altitude 479.0 km
Apogee / Perigee N/A
Velocity 7.63 km/s
Sub-Earth Point -46.20°S, 170.85°W
Launch Date Nov 14, 2024
Age 1.7 years
Type internet

Technical Details

Classification Payload
Mass 730.00 kg
Dry Mass 700.00 kg
Total Mass 730.00 kg
Length 0.30 m
Diameter 4.10 m
Span 29.00 m
Shape Box + pan
Manufacturer SPXS
Bus Type Starlink V2M
Phase Status In Orbit
Owner/State SPXS/US

Most Searched